Погода в Большой

Россия / Архангельская область     61°38′05″N   45°37′44″E
темп.,
°C
ветер,
м/с
пор.,
м/с
влажн.,
%
обл.,
%
осадки,
мм/ч
давл.,
гПа
погр.,
м
2 июля, сб
сб200:00+13зсз2366100 0.0 101950
03:00+11сз227469 0.0 101921
06:00+15с136985 0.0 1018274
09:00+20ссз355816 0.0 10181056
12:00+22ссв3548100 0.0 10171818
15:00+20ссв355899 0.0 10171193
18:00+21ссв3553100 0.0 1017802
21:00+16св22783 0.0 101813
3 июля, вс
вс300:00+12всв11915 0.0 101811
03:00+11с01945 0.0 101910
06:00+16сз12715 0.0 1019234
09:00+21ссз245070 0.0 10181180
12:00+25с243362 0.0 10171949
15:00+26с242957 0.0 10162202
18:00+25ссв243622 0.0 1015952
21:00+17в226296 0.0 101613
4 июля, пн
пн400:00+14юв116781 0.0 101611
03:00+12юв11725 0.0 101710
06:00+17вюв115660 0.0 1017131
09:00+24вюв11375 0.0 1017641
12:00+28ссв012835 0.0 10161916
15:00+28зсз12265 0.0 10152156
18:00+27зюз11360 0.0 1014336
21:00+19ююз22570 0.0 101514
5 июля, вт
вт500:00+17юз256423 0.0 101589
03:00+15ююз117564 0.0 101521
06:00+20ююз116588 0.0 1015117
09:00+27ююз124268 0.0 1014646
12:00+30ююз123137 0.0 10131935
15:00+30зсз443689 0.0 10121797
18:00+23ю126399 0.6 101229
21:00+19ю238898 1.8 101251
6 июля, ср
ср600:00+17ююз23915 0.0 101259
03:00+17юз129469 0.4 101238
06:00+20ююз27878 0.0 1011265
09:00+25зюз3558100 0.0 1011942
12:00+28зюз344659 0.0 10102016
15:00+26юз3458100 0.2 1009903
18:00+22ююв138463 7.5 1010163
21:00+18юз2299100 8.4 101041